Starlink 11646

operational
NORAD ID: 63186 Int'l Des: 2025-048 Owner: SPXS Country: US Constellation: starlink
LEOCIRCULAR

Starlink 11646について

説明を読み込み中...

リアルタイム位置

3D地球を読み込み中...

次回通過

高度履歴

Altitude vs Time

uPlot chart will show altitude changes over time

軌道要素

1 63186U 25048D 25303.58873063 .00301874 00000-0 22623-2 0 9996
2 63186 43.0003 23.7472 0001477 315.4511 44.6238 15.70938941 38061
Epoch: Oct 30, 2025 • Age: 30 hours

現在のステータス

高度 354.7 km
速度 7.70 km/s
衛星直下点 -1.34°S, 140.94°W
打ち上げ日 Mar 13, 2025
運用期間 0.6 years
タイプ internet

技術仕様

分類 Payload
質量 960.00 kg
乾燥質量 910.00 kg
総質量 960.00 kg
長さ 0.30 m
直径 4.10 m
スパン 29.00 m
形状 Box + pan
製造者 SPXS
バスタイプ Starlink V2MD
フェーズステータス In Orbit
所有者/国 SPXS/US

大規模コンステレーション

Loading constellations...